EHI
64 68 75 69 48 25 10 2 2 2 1 0 0 0 0 0 0 0 0 0 0 0 0 0 0 0 0 0 0 0 0 0 0 0 0 0 0 0 0 0 0 0 0
72 71 76 71 51 29 12 5 3 2 1 0 0 0 0 0 0 0 0 0 0 0 0 0 0 0 0 0 0 0 0 0 0 0 0 0 0 0 0 0 0 0 0
75 69 70 70 56 36 19 10 5 3 1 0 0 0 0 0 0 0 0 0 0 0 0 0 0 0 0 0 0 0 0 0 0 0 0 0 0 0 0 0 0 0 0
67 60 61 67 59 42 26 14 6 3 2 1 0 0 0 0 0 0 0 0 0 0 0 0 0 0 0 0 0 0 0 0 0 0 0 0 0 0 0 0 0 0 0
59 53 59 66 59 46 32 18 8 4 3 2 1 1 1 1 1 1 0 0 0 0 0 0 0 0 0 0 0 0 0 0 0 0 1 1 1 0 0 0 0 0 0
58 55 59 65 60 49 36 21 11 5 3 1 1 1 1 2 2 2 1 0 1 0 0 0 0 0 0 0 0 0 0 0 0 0 2 4 4 2 1 1 0 0 0
68 64 63 67 65 54 38 24 14 8 3 1 1 0 1 3 4 3 2 2 2 1 0 0 0 0 0 0 0 0 0 0 0 0 5 12 12 6 3 2 1 0 0
80 75 70 69 66 56 41 25 17 11 5 2 1 1 2 5 6 5 5 5 5 4 3 1 1 0 0 0 0 1 1 0 0 0 9 23 25 17 9 4 2 1 0
88 81 69 62 57 48 36 26 19 13 7 4 3 3 4 5 5 5 6 7 8 9 8 6 4 2 0 0 1 2 2 1 0 0 10 30 41 33 20 9 4 2 1
86 76 59 48 42 31 24 23 21 16 11 8 7 5 4 3 2 3 7 11 13 14 14 13 10 6 2 1 3 4 3 1 0 0 11 37 56 51 34 18 8 4 3
73 66 52 43 33 18 17 23 21 15 14 14 15 13 8 3 1 4 13 24 26 24 22 21 19 15 8 3 4 6 3 1 0 0 15 48 70 64 46 29 16 7 4
53 56 56 53 38 18 22 34 24 15 20 22 24 27 20 10 8 14 31 49 50 41 32 28 27 22 12 4 8 11 7 1 0 1 21 59 81 74 57 40 24 13 8
42 49 58 63 54 36 40 51 36 26 35 36 36 42 37 26 23 32 53 71 70 55 40 34 32 25 13 7 13 19 10 2 1 4 26 63 85 81 66 48 31 18 11
51 53 60 70 72 62 62 66 54 43 50 54 56 58 54 48 45 51 67 77 72 58 44 37 35 27 15 11 17 20 13 5 3 8 29 59 80 81 68 49 32 19 12
68 67 69 78 83 81 76 74 66 60 61 67 72 72 70 69 66 66 71 71 64 57 51 44 39 33 25 19 17 18 16 11 8 13 27 48 64 67 58 41 26 16 10
78 78 79 83 87 86 82 76 71 68 68 70 74 76 77 78 76 73 70 65 60 59 59 54 47 43 37 27 20 20 21 16 14 19 26 37 45 46 42 31 21 14 11
81 82 83 83 84 84 82 76 68 65 67 68 69 70 71 72 75 74 69 63 61 60 61 57 51 48 43 32 24 22 22 19 19 22 25 30 32 30 27 24 22 19 15
83 84 84 81 80 78 76 71 65 61 62 62 62 60 58 59 63 66 63 57 55 56 54 48 45 42 37 28 22 19 19 21 22 22 22 26 26 22 17 18 23 22 19
78 78 78 76 74 71 67 64 62 61 59 55 53 50 45 43 44 46 46 42 43 47 44 38 35 34 28 20 14 12 15 21 22 17 16 20 21 17 11 12 16 17 15
66 65 67 68 67 63 60 60 59 55 53 48 45 41 35 30 26 25 25 26 30 34 34 31 31 31 26 16 8 7 12 17 15 12 10 12 11 9 8 10 12 10 7
49 50 52 55 56 56 56 55 51 45 40 37 35 32 27 21 16 13 12 15 19 21 22 23 26 27 22 15 7 5 8 8 7 7 8 7 4 3 6 11 13 9 4
31 33 36 40 43 46 45 41 35 29 25 24 24 22 18 14 10 8 8 8 10 12 12 14 18 17 13 9 5 3 2 2 2 4 6 6 3 2 4 8 12 11 7
16 19 24 29 33 33 29 25 19 15 13 14 15 15 12 8 7 6 6 5 4 6 7 9 11 10 7 5 3 1 1 2 2 2 2 3 3 2 2 4 9 11 11
8 12 18 25 29 28 23 18 15 12 9 9 11 10 8 7 5 4 3 2 2 3 4 6 8 9 8 4 2 2 2 3 2 1 0 0 2 2 2 2 5 8 9
5 8 14 22 27 26 22 19 16 13 8 7 6 6 6 6 3 2 1 2 2 4 4 5 8 10 8 5 3 3 2 2 1 1 0 0 1 1 1 2 4 6 7
4 5 10 16 22 23 20 18 16 12 8 6 5 5 5 4 2 1 2 3 5 6 5 5 7 8 7 5 5 4 2 1 1 0 0 0 0 1 2 3 4 5 8
Wind_Speed
18 20 21 18 16 14 13 13 13 13 13 12 12 11 11 11 11 10 11 11 10 10 10 10 9 9 9 9 10 10 11 11 12 13 14 13 12 11 10 11 13 13 15
22 20 21 18 16 14 14 13 13 13 13 12 12 11 11 11 10 10 10 10 9 9 9 9 9 9 9 9 9 9 9 10 10 11 13 12 11 10 8 8 12 11 15
22 20 19 17 16 15 14 13 13 13 13 12 12 11 11 10 10 10 9 9 8 8 9 8 8 8 8 9 9 8 8 8 8 9 10 9 10 10 11 15 16 15 14
21 18 17 19 16 15 14 13 13 13 12 12 12 11 11 10 10 9 9 8 8 8 8 8 7 8 8 8 8 7 6 5 6 7 6 6 9 11 12 13 14 13 13
19 17 18 19 17 15 14 13 13 12 12 12 12 11 11 10 10 9 9 8 8 8 8 7 7 7 7 7 7 6 5 4 4 6 3 7 8 11 11 12 12 12 12
19 18 18 18 17 15 14 13 12 12 11 11 11 11 11 10 10 9 9 8 8 8 8 7 7 7 7 7 6 6 4 5 6 6 4 9 9 11 11 11 11 11 11
19 18 18 18 17 15 14 13 12 12 11 11 11 10 10 10 10 9 9 9 8 8 8 7 7 7 7 7 6 6 5 6 7 5 3 8 10 12 11 11 10 11 10
20 19 17 17 17 15 14 13 12 11 11 11 11 10 10 10 9 9 9 9 9 8 8 8 8 8 8 7 7 7 7 8 8 7 5 9 14 14 13 11 10 10 10
20 19 16 15 14 15 14 13 12 12 11 11 10 10 10 10 9 9 9 9 9 9 8 9 9 9 9 9 9 8 9 10 9 6 5 9 16 16 14 12 11 10 10
17 18 16 15 13 13 12 13 13 12 12 11 11 11 11 10 10 11 10 11 11 10 10 10 10 10 10 11 11 10 10 9 9 9 4 10 20 18 16 14 12 11 11
13 15 15 16 13 13 13 14 13 12 12 11 11 12 11 9 10 11 14 14 14 13 12 11 11 11 11 12 13 13 11 6 10 7 4 14 20 19 18 16 14 13 12
11 13 11 14 14 12 11 11 9 10 10 10 9 11 9 8 7 10 15 17 17 15 14 13 12 11 10 8 12 14 7 10 10 6 4 18 19 19 18 16 15 14 14
10 8 9 9 9 8 6 8 6 6 7 10 9 9 8 7 6 6 5 9 11 12 9 10 11 8 9 7 6 8 9 8 6 5 6 19 19 19 19 17 16 15 15
9 8 7 6 5 2 2 4 5 4 4 6 7 7 6 3 3 2 1 5 6 6 6 6 5 8 8 7 6 8 10 6 4 3 6 18 19 19 18 18 17 16 16
5 6 4 4 4 1 2 1 2 2 2 2 3 5 4 3 3 3 2 2 3 4 5 5 5 6 6 6 6 7 7 8 7 4 4 14 17 17 18 18 17 17 17
4 4 5 4 4 2 1 2 3 2 1 1 1 3 5 3 3 3 3 3 3 3 3 4 5 4 4 5 6 6 7 7 5 5 4 8 14 15 16 17 18 18 18
7 6 5 3 3 2 1 2 2 3 2 1 1 2 2 3 3 3 3 4 4 3 3 2 4 3 4 6 7 8 7 7 6 6 5 4 6 12 16 17 17 18 18
10 9 8 5 5 3 1 1 2 3 3 2 2 3 3 3 3 3 3 4 4 3 3 3 3 4 5 5 5 6 6 6 7 7 6 6 6 7 12 18 18 18 18
10 9 8 8 6 5 3 1 1 1 1 1 1 2 3 3 3 2 3 4 4 3 4 5 4 4 4 4 5 6 6 6 7 8 7 8 7 7 6 13 19 18 18
10 9 8 7 6 4 3 1 1 1 1 1 1 1 2 2 3 3 4 5 5 3 4 4 4 5 4 4 6 6 5 5 6 6 7 8 7 9 9 10 10 13 18
8 7 7 7 6 4 3 3 2 2 2 1 1 1 2 2 2 3 5 5 4 4 5 5 4 5 5 4 4 4 4 5 6 5 6 6 8 10 9 8 7 7 8
6 5 5 5 5 5 3 2 2 2 2 2 1 1 2 3 3 3 5 5 4 4 5 5 4 3 5 5 4 3 3 4 5 8 6 6 6 6 7 9 8 8 6
5 5 5 4 4 5 5 3 3 2 3 2 2 2 2 2 3 3 4 4 4 4 4 5 5 5 4 3 4 4 3 3 3 3 6 6 5 4 5 5 8 8 8
4 4 3 3 4 4 5 5 6 5 5 4 3 2 3 3 3 3 3 4 3 3 3 4 5 4 4 3 4 3 1 0 1 2 3 4 6 5 4 5 6 6 7
5 4 3 3 3 3 4 5 5 6 5 5 4 5 4 4 4 4 3 2 2 2 2 2 2 1 2 3 3 2 3 2 3 2 3 3 3 4 4 4 3 5 6
5 5 5 4 4 4 4 5 5 6 7 8 7 6 5 3 3 4 3 1 2 2 1 1 1 2 3 3 3 2 2 2 2 2 3 4 4 4 5 4 4 4 4
Wind_Direction
126 136 142 142 141 140 141 143 146 145 143 140 137 134 130 127 123 119 115 112 111 110 108 106 103 100 97 94 91 91 92 94 96 98 98 98 98 99 103 113 112 103 109
128 137 142 142 142 142 143 144 145 146 146 145 142 141 139 136 133 130 125 122 119 116 113 110 107 106 105 102 99 101 103 109 113 115 114 107 101 95 94 100 107 112 114
127 136 142 142 142 143 142 144 147 149 150 149 147 146 145 143 142 140 137 133 129 123 118 116 114 112 111 110 109 110 115 125 133 139 146 128 112 98 94 98 107 115 117
129 140 144 144 144 144 143 145 148 151 153 153 152 152 151 150 150 149 144 142 139 133 129 127 124 121 119 119 120 122 129 144 159 176 185 137 122 110 107 108 113 118 120
134 141 140 147 147 147 145 145 149 151 153 155 156 157 157 157 158 157 153 151 149 143 140 137 134 131 129 130 132 138 152 181 208 231 195 111 108 123 120 119 120 123 125
138 137 142 149 149 149 148 148 151 153 155 157 160 162 164 165 165 163 160 160 160 156 153 150 149 147 146 146 150 158 182 219 245 233 165 128 125 135 132 133 132 131 131
138 136 145 150 150 151 152 154 157 159 161 164 167 169 171 172 173 172 170 171 172 171 167 166 166 166 165 166 170 179 203 235 253 260 158 126 134 143 144 144 143 142 142
135 136 142 151 153 155 158 160 163 165 168 171 175 177 178 179 182 182 180 181 182 182 180 179 181 179 181 185 190 197 215 244 241 241 170 135 146 151 152 154 153 154 153
135 135 146 154 157 160 164 166 169 172 175 178 182 185 186 189 192 195 193 192 191 191 192 193 194 193 193 196 201 207 220 240 271 278 213 145 154 156 159 164 166 166 164
137 141 152 157 161 166 170 174 176 179 182 185 190 193 195 199 204 207 205 202 203 202 202 204 206 207 205 204 207 212 222 240 253 258 232 155 159 161 164 170 175 177 176
140 144 159 158 165 174 175 172 178 185 190 192 197 201 203 209 208 206 215 203 203 205 207 210 213 215 214 212 212 214 218 231 238 244 232 159 164 166 169 175 181 185 186
159 154 162 162 166 182 179 158 180 187 188 200 200 194 202 217 223 216 200 198 199 203 207 213 217 220 221 220 214 210 214 224 243 236 195 160 169 171 172 178 186 191 192
165 162 160 163 161 180 168 158 182 192 179 196 211 196 203 216 222 227 188 186 196 203 209 212 213 219 218 219 209 192 214 224 224 236 177 167 173 177 179 182 189 196 199
163 167 161 151 143 176 161 164 178 192 179 190 193 199 205 215 246 239 209 177 185 197 205 210 203 214 220 221 217 199 210 223 230 224 175 174 178 181 184 187 193 200 203
141 151 138 124 117 106 7 329 220 207 193 187 164 184 203 201 222 251 260 246 216 202 194 204 210 214 220 222 225 217 217 218 229 222 179 183 185 187 189 192 198 204 208
90 122 125 122 123 129 181 293 321 323 346 305 199 188 197 203 205 219 231 238 247 242 213 194 210 205 215 223 227 227 224 225 227 226 196 191 194 195 197 199 204 208 211
60 56 67 116 121 141 216 274 288 301 310 328 336 319 262 229 221 222 231 231 231 236 236 223 222 204 214 220 220 226 223 222 221 217 209 194 197 207 210 210 211 212 213
45 44 40 36 52 57 38 338 316 311 340 354 350 332 317 291 267 248 244 247 242 233 223 223 226 217 220 223 221 221 218 208 216 214 208 199 198 207 214 219 218 215 214
46 43 42 37 35 38 31 9 321 331 346 326 332 323 323 313 300 280 261 258 256 245 230 229 220 219 222 223 229 220 214 205 205 214 207 206 201 202 203 214 217 215 215
49 45 40 40 34 23 20 358 346 331 299 275 291 309 328 327 317 293 268 257 253 247 243 230 222 218 220 222 240 233 210 207 201 204 204 208 201 204 206 207 204 213 216
53 49 41 33 24 14 10 355 350 340 319 314 297 325 301 287 289 282 271 263 245 240 243 232 218 223 222 216 228 239 228 216 209 199 201 204 201 202 201 194 188 194 207
58 47 48 33 18 10 7 343 322 311 287 277 295 287 285 282 275 268 262 264 255 245 242 231 217 227 226 205 206 218 211 211 217 208 192 200 205 193 191 191 185 187 197
56 46 42 31 19 9 349 334 335 307 291 307 305 293 273 270 263 266 264 257 254 247 252 248 226 224 230 224 215 212 203 198 184 193 196 191 180 178 186 185 183 182 191
44 45 42 33 22 5 347 346 340 323 322 321 317 301 299 285 275 259 262 262 261 253 251 257 238 231 220 238 238 237 230 54 168 159 208 180 167 177 189 194 186 175 183
9 12 17 23 10 354 338 329 327 322 322 319 317 299 289 274 259 253 249 253 252 251 258 281 310 270 232 235 248 252 240 220 224 192 188 168 171 174 184 189 178 174 178
356 358 358 0 353 342 328 320 314 313 311 309 303 294 286 274 261 254 244 242 259 243 239 251 266 271 269 265 267 262 245 232 233 218 183 179 185 188 180 173 174 171 170